Location: Unspecified
(51.0950°N, 12.9690°E)
Time: 17:27:06
(UTC+00:00)

BEESAT - Pass Details

Date: 03 May 2024
Orbit: 692 x 702 km, 98.5° (Epoch: 27 May)

Event Time Altitude Azimuth Distance (km) Brightness Sun altitude
Rises 22:42:05 0° 6° (N) 3,083 ? -22.7°
Reaches altitude 10° 22:44:42 10° 352° (N) 2,161 ? -22.7°
Maximum altitude 22:48:24 23° 301° (WNW) 1,451 ? -22.8°
Enters shadow 22:51:30 13° 254° (WSW) 1,973 ? -22.8°
